Location: Newark
(41.1200°N, 81.9000°W)
Time: 03:47:13
(UTC+00:00)

Starlink (trailer) - Visible Passes

Search period start: 22 July 2019 00:00
Search period end: 01 August 2019 00:00
Orbit: 548 x 551 km, 53.0° (Epoch: 21 July)

Date Brightness Start Highest point End Pass type
(mag) Time Alt. Az. Time Alt. Az. Time Alt. Az.
22 Jul 6.2 05:25:52 13° ENE 05:25:52 13° ENE 05:26:24 10° ENE visible
22 Jul 5.0 07:01:29 32° NW 07:02:06 33° NNW 07:05:54 10° NE visible
22 Jul 6.3 08:40:02 10° NW 08:42:41 16° N 08:45:21 10° NNE visible
23 Jul 6.1 05:20:14 16° ENE 05:20:14 16° ENE 05:21:05 10° ENE visible
23 Jul 5.3 06:55:52 25° NW 06:56:49 28° NNW 07:00:26 10° NE visible
23 Jul 6.3 08:34:55 10° NW 08:37:29 16° N 08:40:04 10° NE visible
24 Jul 5.9 05:14:32 18° NE 05:14:32 18° NE 05:15:42 10° NE visible
24 Jul 5.7 06:50:09 20° NW 06:51:33 24° NNW 06:54:57 10° NE visible
24 Jul 6.4 08:29:44 10° NW 08:32:18 16° N 08:34:52 10° NE visible
25 Jul 5.7 05:08:46 22° NE 05:08:46 22° NE 05:10:17 10° NE visible
25 Jul 6.0 06:44:23 16° NW 06:46:17 21° NNW 06:49:30 10° NNE visible
25 Jul 6.4 08:24:29 10° NW 08:27:06 16° N 08:29:43 10° NE visible
26 Jul 5.5 05:02:53 26° NE 05:02:53 26° NE 05:04:50 10° NE visible
26 Jul 6.2 06:38:29 12° NW 06:41:04 19° NNW 06:44:04 10° NNE visible
26 Jul 6.5 08:19:11 10° NNW 08:21:54 17° N 08:24:38 10° NE visible
27 Jul 5.3 04:56:49 31° NNE 04:56:49 31° NNE 04:59:23 10° NE visible
27 Jul 6.3 06:33:01 10° NW 06:35:50 17° N 06:38:40 10° NNE visible
27 Jul 6.4 08:13:49 10° NNW 08:16:41 18° NNE 08:19:34 10° NE visible
28 Jul 5.2 04:50:21 34° NNW 04:50:21 34° NNW 04:53:54 10° NE visible
28 Jul 6.5 06:27:57 10° NW 06:30:37 16° N 06:33:19 10° NNE visible
28 Jul 6.3 08:08:24 10° NNW 08:11:28 20° NNE 08:14:32 10° ENE visible
29 Jul 5.0 03:07:07 26° ENE 03:07:07 26° ENE 03:09:02 10° ENE visible
29 Jul 5.5 04:42:26 17° WNW 04:44:46 29° NNW 04:48:24 10° NE visible
29 Jul 6.6 06:22:50 10° NW 06:25:26 16° N 06:28:01 10° NE visible
29 Jul 6.2 08:02:57 10° NNW 08:06:13 22° NNE 08:09:29 10° ENE visible
29 Jul 3.8 09:42:10 10° NW 09:46:20 79° NE 09:50:28 10° SE visible
30 Jul 5.5 01:19:12 10° SE 01:20:32 11° SE 01:21:51 10° ESE visible
30 Jul 3.4 02:55:21 10° SW 02:59:30 82° SE 03:03:40 10° NE visible
30 Jul 5.9 04:36:02 10° WNW 04:39:29 24° NNW 04:42:55 10° NE visible
30 Jul 6.6 06:17:40 10° NW 06:20:13 16° N 06:22:47 10° NE visible
30 Jul 5.9 07:57:29 10° NW 08:00:57 25° NNE 08:04:25 10° ENE visible
30 Jul 3.5 09:36:46 10° NW 09:40:54 78° SW 09:45:02 10° SE visible
31 Jul 5.2 01:12:23 10° SSE 01:14:57 16° SE 01:17:31 10° E visible
31 Jul 3.7 02:49:56 10° WSW 02:54:04 76° NW 02:58:14 10° NE visible
31 Jul 6.1 04:30:58 10° WNW 04:34:13 21° NNW 04:37:28 10° NNE visible
31 Jul 6.6 06:12:25 10° NW 06:15:01 16° N 06:17:37 10° NE visible
31 Jul 5.6 07:52:00 10° NW 07:55:40 29° NNE 07:59:20 10° E visible
31 Jul 3.7 09:31:23 10° WNW 09:35:27 57° SW 09:39:31 10° SE visible
